Showing default

KUIPER-00033, 63746

Orbit data source: Space-Track

KUIPER-00033, 63746 is a payload satellite owned by Kuiper Systems (US) in LEO that was launched on Mon, 28 Apr 2025 UTC via an ATLAS V 551 launch vehicle from the Air Force Eastern Test Range (AFETR). Payload-class satellites include a variety of spacecraft equipped with specific instruments for various scientific and technological missions. These include communications satellites like Starlink; space stations such as the ISS; scientific satellites like the Hubble; Earth observation satellites from companies like Planet Labs, Umbra, and HawkEye 360; GPS; miniature CubeSats for education and research; and military/defense satellites.

Loading next visibility...
Identifier
63746, 2025-088Y
Orbit
LEO
Country
Flag of USUS
Related business
Manufacturer
Kuiper Systems
Mission
Operational Commercial Communications
Bus & Motor
KUIPER, Unknown motor
Mass
~490 kg wet, ~490 kg dry
Launch date (UTC)
2025-04-28 (8 months ago)
Launch vehicle
ATLAS V 551
Launch site
Air Force Eastern Test Range (AFETR)
Object type
Payload
Rocket body
Debris
Shape & HBR
Box + 2 Pan, 3.4 m
Radar Cross Section
2.326 m², Large (>1 m²)

Expand to show TLE details & history
Last TLE update: 1 day ago

TLE from 1 day ago
0 KUIPER-00033
1 63746U 25088Y   25348.40383226  .00003664  00000-0  50991-3 0  9995
2 63746  51.8988 143.7311 0002983 235.3094 124.7588 14.79887362 34978
Epoch: 2025-12-14T09:41Z
TLE epoch observation values (Epoch: 2025-12-14T09:41:31.107Z)
Latitude
0.00003°
Longitude
-84.96573°
Altitude
631.618 km
Speed
7.543 km/s
True Right ascension
09h 34m 55s
True Declination
0° 00' 00"
Sunlit
Object was in full shadow at epoch
Visualization orbit readout
Latitude
Unknown
Longitude
Unknown
Altitude
Unknown
Speed
Unknown
Apparent Right ascension
Unknown
Apparent Declination
Unknown
Sunlit
N/A
Visualization observer readout
Local Sidereal Time
15:06:12
Azimuth
Unknown
Elevation
Unknown
Doppler factor
Unknown
Orbital elements
Apogee altitude
632.222 km
Perigee altitude
628.04 km
Semi-major axis
7,008.268 km
Eccentricity
0.0003
Inclination
51.8988°
RAAN
143.7311°
Arg. of periapsis
235.3094°
True anomaly
124.78688°
Mean anomaly
124.7588°
Eccentric anomaly
124.77284°
Mean motion
3.69936 °/min
Orbital period
97.31 mins
BSTAR
0.00050991
Loading maneuver chart data...
Computing Atmospheric mass density...
Loading historical data...
Loading historical data...
Loading historical data...
Loading historical data...
Loading historical data...
Loading historical data...
Loading historical data...

Documentation

Showing up to 5 results
|